#datint,netname,site,siteID,timestamp,IntT,BattV,AirT2,AirT,AirT_Avg,AirT_Max,AirT_Min,RH_Avg,RH_Max,RH_Min,EA_Avg,Td_Avg,Td_Max,Td_Min,WindS_Smp,WindS_Avg,WindD_Avg,WindD_SD,WindS_Max,ETo,ETr,SoilT4,SoilT8,SoilVWC8,SolarW_Avg,wetstate_Avg,wetT_Avg,Precip_accum,Precip_WPG,Precip_TB
15min,AgWx,beryljct,423,06MAR2018:00:00:00,23.0,12.79,24.8,25.0,25.3,25.7,24.8,64,66,63,0.294,14.7,15.2,14.3,4.056,3.1,347,18,4.7,-0.00003,-0.00002,34.0,36.4,22,0,0,35.5,12.51,0.00,0.00
15min,AgWx,beryljct,423,06MAR2018:00:15:00,22.7,12.66,24.4,24.7,25.0,25.4,24.4,64,66,62,0.293,14.6,14.8,14.2,4.253,4.2,337,15,5.6,0.00001,0.00003,33.9,36.3,22,0,0,35.4,12.51,0.00,0.00
15min,AgWx,beryljct,423,06MAR2018:00:30:00,22.5,12.76,23.0,23.3,23.9,24.7,23.3,68,70,65,0.300,14.9,15.2,14.4,3.924,4.3,334,14,5.9,0.00000,0.00001,33.8,36.3,22,0,0,35.6,12.51,0.00,0.00
15min,AgWx,beryljct,423,06MAR2018:00:45:00,22.1,12.77,23.1,23.0,22.9,23.3,22.5,71,72,70,0.301,15.1,15.3,14.7,3.091,3.9,311,13,5.2,-0.00002,-0.00001,33.6,36.3,21,0,0,35.6,12.51,0.00,0.00
15min,AgWx,beryljct,423,06MAR2018:01:00:00,21.7,12.76,23.5,23.2,23.2,23.5,22.8,70,71,69,0.295,14.9,15.1,14.5,4.647,3.6,303,10,4.6,-0.00002,-0.00002,33.6,36.3,22,0,0,35.6,12.51,0.00,0.00
15min,AgWx,beryljct,423,06MAR2018:01:15:00,21.5,12.75,22.5,22.5,23.1,23.7,22.4,69,71,67,0.294,14.5,14.8,14.3,2.806,3.8,322,8.9,5.2,-0.00001,-0.00000,33.5,36.2,22,0,0,35.5,12.51,0.00,0.00
15min,AgWx,beryljct,423,06MAR2018:01:30:00,21.2,12.61,22.7,22.6,22.4,22.6,22.1,71,72,70,0.289,14.4,14.7,14.2,4.319,3.4,314,9.6,4.4,-0.00003,-0.00003,33.4,36.2,22,0,0,35.6,12.51,0.00,0.00
15min,AgWx,beryljct,423,06MAR2018:01:45:00,20.8,12.71,21.6,21.5,22.2,22.8,21.4,71,73,69,0.290,14.1,14.4,13.8,3.814,3.9,313,11,5.0,-0.00002,-0.00001,33.3,36.2,22,0,0,35.5,12.51,0.00,0.00
15min,AgWx,beryljct,423,06MAR2018:02:00:00,20.4,12.72,21.5,21.8,21.5,21.9,21.1,73,75,72,0.289,14.3,14.6,14.0,3.464,3.8,305,4.2,4.3,-0.00002,-0.00002,33.3,36.2,22,0,0,35.7,12.51,0.00,0.00
15min,AgWx,beryljct,423,06MAR2018:02:15:00,20.1,12.7,21.1,21.3,21.6,21.9,21.2,72,73,72,0.287,14.1,14.3,13.9,3.858,4.2,309,7.6,5.6,-0.00001,-0.00001,33.2,36.2,22,0,0,35.8,12.51,0.00,0.00
15min,AgWx,beryljct,423,06MAR2018:02:30:00,20.0,12.69,21.6,21.6,21.8,22.4,21.0,72,74,69,0.287,14.0,14.5,13.8,4.735,4.8,307,14,7.0,0.00000,0.00001,33.1,36.1,22,0,0,35.5,12.51,0.00,0.00
15min,AgWx,beryljct,423,06MAR2018:02:45:00,20.0,12.56,22.0,21.7,21.4,22.0,20.9,73,75,71,0.288,14.1,14.5,13.9,4.669,6.2,312,16,8.6,0.00002,0.00003,33.0,36.0,22,0,0,35.5,12.51,0.00,0.00
15min,AgWx,beryljct,423,06MAR2018:03:00:00,20.0,12.52,20.5,20.4,21.5,22.5,20.4,71,75,68,0.285,13.7,14.1,13.3,3.858,6.0,315,20,8.2,0.00002,0.00003,32.9,36.0,22,0,0,35.6,12.51,0.00,0.00
15min,AgWx,beryljct,423,06MAR2018:03:15:00,19.8,12.65,20.1,19.9,19.9,20.6,19.6,78,79,75,0.290,14.2,14.4,13.6,5.349,5.2,313,13,6.3,-0.00001,-0.00001,32.8,36.0,21,0,0,35.6,12.51,0.00,0.00
15min,AgWx,beryljct,423,06MAR2018:03:30:00,19.5,12.65,20.7,20.6,20.1,20.7,19.7,77,79,75,0.283,14.0,14.4,13.7,4.538,5.5,309,13,7.2,-0.00000,0.00000,32.8,36.0,22,0,0,35.7,12.51,0.00,0.00
15min,AgWx,beryljct,423,06MAR2018:03:45:00,19.3,12.64,20.4,20.3,20.3,20.6,20.1,75,76,75,0.281,13.7,13.9,13.4,4.932,4.5,307,11,5.7,-0.00002,-0.00001,32.7,36.0,22,0,0,35.7,12.51,0.00,0.00
15min,AgWx,beryljct,423,06MAR2018:04:00:00,19.1,12.65,20.7,20.4,20.4,20.9,19.9,74,75,72,0.274,13.5,13.8,13.0,3.157,4.2,311,13,5.5,-0.00002,-0.00001,32.6,35.9,22,0,0,35.6,12.51,0.00,0.00
15min,AgWx,beryljct,423,06MAR2018:04:15:00,18.9,12.5,21.3,21.2,21.1,22.0,20.3,70,73,66,0.265,12.7,13.2,11.9,3.595,3.0,327,21,4.8,-0.00004,-0.00003,32.5,35.9,22,0,0,35.5,12.51,0.00,0.00
15min,AgWx,beryljct,423,06MAR2018:04:30:00,18.5,12.63,20.6,20.7,20.8,21.2,20.4,69,70,68,0.268,12.3,12.7,12.0,1.184,1.9,326,15,3.6,-0.00007,-0.00009,32.4,35.9,22,0,0,35.5,12.51,0.00,0.00
15min,AgWx,beryljct,423,06MAR2018:04:45:00,17.8,12.63,18.9,19.4,20.0,20.7,19.4,72,74,70,0.269,12.4,12.7,12.1,0.943,0.3,292,3.8,1.5,-0.00016,-0.00024,32.3,35.8,22,0,0,35.8,12.51,0.00,0.00
15min,AgWx,beryljct,423,06MAR2018:05:00:00,17.2,12.6,16.9,17.0,18.4,19.3,17.0,78,83,74,0.271,12.6,12.9,12.0,3.573,2.5,163,56,5.2,-0.00006,-0.00007,32.2,35.8,22,0,0,35.3,12.51,0.00,0.00
15min,AgWx,beryljct,423,06MAR2018:05:15:00,16.8,12.6,15.3,15.7,16.5,17.1,15.7,85,86,83,0.260,12.6,13.3,11.8,3.661,3.6,156,23,4.9,-0.00005,-0.00005,32.2,35.7,22,0,0,35.4,12.51,0.00,0.00
15min,AgWx,beryljct,423,06MAR2018:05:30:00,16.3,12.59,16.1,16.3,15.8,16.3,15.3,86,86,84,0.271,12.2,12.7,11.5,5.064,3.8,186,8.5,5.4,-0.00005,-0.00005,32.1,35.7,22,0,0,35.5,12.51,0.00,0.00
15min,AgWx,beryljct,423,06MAR2018:05:45:00,16.0,12.45,16.3,16.7,16.8,17.2,16.2,84,85,83,0.271,12.9,13.2,12.5,3.88,4.1,190,12,5.9,-0.00004,-0.00004,32.1,32.0,0,0,0,35.7,12.51,0.00,0.00
15min,AgWx,beryljct,423,06MAR2018:06:00:00,15.7,12.57,18.2,18.3,17.4,18.3,16.5,85,86,83,0.286,13.5,14.0,12.6,2.192,2.8,178,13,4.6,-0.00006,-0.00007,32.0,35.6,22,0,0,35.9,12.51,0.00,0.00
15min,AgWx,beryljct,423,06MAR2018:06:15:00,15.5,12.58,18.1,18.3,18.6,19.1,18.3,79,83,78,0.272,13.2,14.3,12.6,0.921,1.4,140,35,3.2,0.00004,0.00007,31.9,35.6,22,0,0,35.5,12.51,0.00,0.00
15min,AgWx,beryljct,423,06MAR2018:06:30:00,15.2,12.58,17.8,18.1,18.2,18.6,17.8,80,81,79,0.277,13.0,13.4,12.6,0,0.4,63,21,1.1,0.00001,0.00002,31.8,35.6,22,0,0,35.8,12.51,0.00,0.00
15min,AgWx,beryljct,423,06MAR2018:06:45:00,15.1,12.57,16.8,16.8,17.5,18.1,16.7,82,83,81,0.269,12.8,13.3,12.3,3.508,2.6,337,18,4.0,0.00006,0.00010,31.8,35.6,22,0,0,35.4,12.51,0.00,0.00
15min,AgWx,beryljct,423,06MAR2018:07:00:00,14.9,12.56,12.8,13.1,15.3,16.9,13.1,84,86,83,0.237,11.3,12.8,9.5,2.653,2.9,321,12,3.8,0.00006,0.00010,31.7,35.6,22,4,0,35.5,12.51,0.00,0.00
15min,AgWx,beryljct,423,06MAR2018:07:15:00,14.6,12.45,13.8,14.5,13.6,14.6,13.0,89,90,86,0.260,10.9,11.9,9.7,2.653,3.4,340,11,4.8,0.00010,0.00013,31.7,35.5,22,25,0,35.8,12.51,0.00,0.00
15min,AgWx,beryljct,423,06MAR2018:07:30:00,15.7,12.66,14.9,15.7,15.2,15.8,14.4,88,89,87,0.269,12.3,12.9,11.7,0.855,1.6,342,8.9,2.7,0.00019,0.00022,31.6,35.5,22,70,0,35.6,12.51,0.00,0.00
15min,AgWx,beryljct,423,06MAR2018:07:45:00,17.7,12.81,16.6,17.1,16.4,17.2,15.7,87,87,86,0.282,13.1,13.8,12.6,1.447,1.4,3.9,14,2.6,0.00028,0.00032,31.5,35.5,22,113,0,35.8,12.51,0.00,0.00
15min,AgWx,beryljct,423,06MAR2018:08:00:00,20.2,13.02,18.3,19.0,18.2,19.0,17.0,84,86,83,0.299,14.3,15.0,13.4,4.034,1.8,111,47,4.0,0.00040,0.00044,31.5,35.4,22,152,0,35.8,12.51,0.00,0.00
15min,AgWx,beryljct,423,06MAR2018:08:15:00,22.6,13.35,20.8,21.4,20.2,21.4,18.9,83,85,79,0.313,15.8,16.5,14.9,2.828,3.1,140,11,4.4,0.00053,0.00060,31.4,35.4,22,200,0,35.5,12.51,0.00,0.00
15min,AgWx,beryljct,423,06MAR2018:08:30:00,25.4,13.77,21.4,21.9,21.6,22.0,21.2,78,79,77,0.315,15.9,16.5,15.4,3.201,2.7,151,14,4.1,0.00071,0.00080,31.3,35.4,22,257,0,35.7,12.51,0.00,0.00
15min,AgWx,beryljct,423,06MAR2018:08:45:00,28.2,14.09,24.7,24.7,23.1,24.7,21.9,74,79,65,0.295,15.8,16.9,14.5,0,2.0,139,12,3.6,0.00089,0.00100,31.3,35.3,22,304,0,35.9,12.51,0.00,0.00
15min,AgWx,beryljct,423,06MAR2018:09:00:00,31.6,14.21,23.9,23.6,24.8,25.6,23.4,60,65,57,0.268,13.0,14.9,12.0,1.71,1.4,58,46,3.9,0.00110,0.00123,31.2,35.3,22,347,0,37.3,12.52,0.00,0.00
15min,AgWx,beryljct,423,06MAR2018:09:15:00,34.0,14.58,24.9,24.6,24.1,24.8,23.6,62,64,59,0.273,12.9,13.8,11.8,1.732,2.8,28,17,4.5,0.00120,0.00137,31.3,35.3,22,393,0,36.1,12.52,0.00,0.00
15min,AgWx,beryljct,423,06MAR2018:09:30:00,36.8,14.82,27.5,26.2,25.3,26.5,24.5,60,61,58,0.286,13.3,14.4,12.3,2.828,1.7,26,27,4.5,0.00141,0.00157,31.2,35.2,22,441,0,39.5,12.52,0.00,0.00
15min,AgWx,beryljct,423,06MAR2018:09:45:00,39.1,14.81,28.2,27.5,26.6,27.7,25.9,58,61,54,0.285,13.8,15.0,12.3,2.411,2.5,55,24,5.2,0.00159,0.00179,31.2,35.2,22,488,0,40.6,12.52,0.00,0.00
15min,AgWx,beryljct,423,06MAR2018:10:00:00,40.8,14.78,28.3,28.0,28.2,28.7,27.5,56,59,54,0.288,14.5,15.9,13.4,3.946,3.2,95,22,6.3,0.00178,0.00203,31.1,35.1,22,534,0,42.7,12.52,0.00,0.00
15min,AgWx,beryljct,423,06MAR2018:10:15:00,41.3,14.71,29.7,29.8,28.7,30.1,27.8,55,58,53,0.298,14.8,16.8,13.6,4.012,3.9,73,27,6.5,0.00192,0.00221,31.1,35.1,22,574,0,41.6,12.51,0.00,0.00
15min,AgWx,beryljct,423,06MAR2018:10:30:00,42.9,14.74,31.2,31.5,30.2,31.5,29.3,51,55,48,0.304,14.3,15.6,13.3,3.288,2.4,50,60,5.2,0.00218,0.00245,31.1,35.1,22,616,0,46.4,12.51,0.00,0.00
15min,AgWx,beryljct,423,06MAR2018:10:45:00,43.9,14.67,32.9,33.1,32.5,33.4,31.5,45,52,41,0.267,13.2,16.2,11.5,7.168,7.0,49,21,12.4,0.00235,0.00285,31.0,35.0,22,651,0,45.2,12.51,0.00,0.00
15min,AgWx,beryljct,423,06MAR2018:11:00:00,44.1,14.63,34.2,34.3,33.4,34.3,32.7,43,47,39,0.313,13.4,16.0,11.0,7.98,8.6,44,19,14.3,0.00248,0.00307,31.1,35.0,22,682,0,43.8,12.51,0.00,0.00
15min,AgWx,beryljct,423,06MAR2018:11:15:00,44.3,14.68,35.6,35.7,34.8,35.9,33.7,40,46,35,0.307,13.1,16.3,10.3,8.24,8.8,31,15,12.5,0.00263,0.00327,31.1,35.0,22,693,0,45.6,12.51,0.00,0.00
15min,AgWx,beryljct,423,06MAR2018:11:30:00,44.7,14.64,35.8,35.5,35.8,36.6,35.2,40,44,37,0.277,14.1,16.1,11.9,7.651,8.5,36,14,12.7,0.00276,0.00340,31.1,35.0,22,714,0,46.7,12.51,0.00,0.00
15min,AgWx,beryljct,423,06MAR2018:11:45:00,45.0,14.61,36.5,36.6,36.4,37.4,35.4,40,44,37,0.288,14.5,16.8,12.8,8.42,9.0,39,15,12.6,0.00292,0.00361,31.0,35.0,22,760,0,48.0,12.51,0.00,0.00
15min,AgWx,beryljct,423,06MAR2018:12:00:00,45.1,14.64,38.1,38.2,37.4,38.9,36.6,38,43,30,0.267,14.0,16.4,9.3,10.17,9.5,42,15,14.2,0.00276,0.00349,31.1,35.0,22,665,0,47.5,12.51,0.00,0.00
15min,AgWx,beryljct,423,06MAR2018:12:15:00,45.1,14.21,39.4,39.7,38.6,39.8,37.7,33,37,28,0.303,11.6,15.3,7.9,12.78,12.2,45,12,16.6,0.00319,0.00412,31.2,34.9,22,781,0,48.4,12.51,0.00,0.00
15min,AgWx,beryljct,423,06MAR2018:12:30:00,45.2,14.25,40.0,40.0,39.6,40.0,38.8,30,38,23,0.290,10.4,16.1,4.9,8.75,11.0,38,15,15.7,0.00330,0.00425,31.1,34.9,22,773,0,49.9,12.51,0.00,0.00
15min,AgWx,beryljct,423,06MAR2018:12:45:00,45.2,14.25,40.0,40.4,39.8,40.6,39.3,30,36,24,0.302,10.9,15.6,6.0,11.51,11.3,46,15,15.3,0.00310,0.00404,31.0,34.9,22,697,0,48.5,12.51,0.00,0.00
15min,AgWx,beryljct,423,06MAR2018:13:00:00,45.3,14.19,41.7,41.7,40.8,41.7,40.0,33,38,26,0.303,13.6,17.2,8.8,7.322,10.3,57,17,13.7,0.00344,0.00436,31.0,34.8,22,801,0,50.4,12.51,0.00,0.00
15min,AgWx,beryljct,423,06MAR2018:13:15:00,45.5,14.17,41.9,41.9,41.6,42.7,40.5,32,38,28,0.293,14.1,18.0,11.3,12.01,10.2,56,18,14.3,0.00345,0.00438,31.1,34.9,22,783,0,51.5,12.51,0.00,0.00
15min,AgWx,beryljct,423,06MAR2018:13:30:00,46.3,14.16,42.3,42.4,42.2,43.1,41.6,32,39,27,0.283,14.2,19.6,10.6,11.14,10.8,42,15,16.2,0.00347,0.00445,31.2,34.8,22,775,0,51.5,12.51,0.00,0.00
15min,AgWx,beryljct,423,06MAR2018:13:45:00,47.3,14.13,42.7,42.8,42.7,43.4,41.9,31,36,28,0.298,13.9,17.8,11.0,9.21,10.0,46,15,15.1,0.00335,0.00431,31.3,34.8,22,732,0,51.1,12.51,0.00,0.00
15min,AgWx,beryljct,423,06MAR2018:14:00:00,48.3,14.09,43.4,43.4,43.5,44.2,42.6,27,35,21,0.238,11.8,17.7,6.1,8.77,10.4,39,16,16.4,0.00360,0.00465,31.5,34.8,22,763,0,51.9,12.51,0.00,0.00
15min,AgWx,beryljct,423,06MAR2018:14:15:00,49.1,14.08,43.9,44.0,43.9,44.6,43.2,25,30,20,0.217,10.3,14.0,5.2,9.95,11.3,50,14,15.1,0.00350,0.00461,31.9,34.8,22,719,0,51.5,12.51,0.00,0.00
15min,AgWx,beryljct,423,06MAR2018:14:30:00,49.9,14.07,43.5,44.2,44.6,45.1,43.9,24,30,17,0.219,10.1,15.5,1.5,14.51,10.6,42,17,16.8,0.00354,0.00464,32.4,34.8,22,714,0,51.9,12.51,0.00,0.00
15min,AgWx,beryljct,423,06MAR2018:14:45:00,50.2,14.06,44.5,44.9,44.8,45.9,43.9,26,32,21,0.271,11.8,17.3,7.0,8.57,10.8,40,17,17.2,0.00336,0.00446,32.8,34.7,22,666,0,51.2,12.51,0.00,0.00
15min,AgWx,beryljct,423,06MAR2018:15:00:00,50.7,14.03,45.4,45.4,45.4,46.0,44.8,27,31,23,0.298,13.6,16.8,9.6,7.344,10.5,48,16,15.0,0.00327,0.00434,33.2,34.7,22,642,0,51.6,12.51,0.00,0.00
15min,AgWx,beryljct,423,06MAR2018:15:15:00,51.4,14.02,45.3,45.4,45.7,46.5,45.0,25,29,20,0.235,11.4,15.4,7.3,9.69,10.2,33,11,14.9,0.00325,0.00434,33.8,34.7,22,621,0,51.8,12.51,0.00,0.00
15min,AgWx,beryljct,423,06MAR2018:15:30:00,52.0,14.02,46.2,46.0,46.0,46.8,45.4,25,29,21,0.270,12.3,16.2,8.5,7.607,10.3,42,17,14.8,0.00313,0.00421,34.4,34.7,22,586,0,51.3,12.51,0.00,0.00
15min,AgWx,beryljct,423,06MAR2018:15:45:00,52.5,14.02,46.7,46.4,46.2,46.7,45.8,26,30,23,0.269,13.5,16.5,10.1,13.35,11.6,48,13,15.3,0.00302,0.00416,34.9,34.6,22,546,0,50.7,12.50,0.00,0.00
15min,AgWx,beryljct,423,06MAR2018:16:00:00,52.7,14.01,47.1,46.7,46.5,47.1,45.8,27,31,24,0.338,14.1,17.8,11.7,8.68,11.3,37,13,15.5,0.00285,0.00398,35.3,34.7,22,503,0,50.2,12.51,0.00,0.00
15min,AgWx,beryljct,423,06MAR2018:16:15:00,52.7,14.02,46.6,46.4,46.5,47.0,46.1,27,30,24,0.298,14.0,17.3,11.5,12.36,12.1,44,14,17.2,0.00271,0.00386,35.7,34.6,22,458,0,49.3,12.51,0.00,0.00
15min,AgWx,beryljct,423,06MAR2018:16:30:00,52.5,14.04,46.4,46.2,46.5,46.8,46.1,27,31,25,0.269,14.5,17.2,12.3,12.78,11.0,49,14,15.6,0.00246,0.00353,36.1,34.7,22,409,0,48.7,12.51,0.00,0.00
15min,AgWx,beryljct,423,06MAR2018:16:45:00,52.2,14.04,46.4,46.1,46.3,46.6,46.0,27,30,25,0.297,14.0,16.8,11.9,10.02,11.7,47,13,15.0,0.00231,0.00342,36.3,34.7,22,361,0,47.8,12.51,0.00,0.00
15min,AgWx,beryljct,423,06MAR2018:17:00:00,51.8,14.02,46.0,45.8,46.2,46.7,45.7,28,32,25,0.285,14.8,18.2,11.9,13.5,11.4,38,9.4,16.0,0.00208,0.00313,36.6,34.7,22,311,0,47.1,12.51,0.00,0.00
15min,AgWx,beryljct,423,06MAR2018:17:15:00,51.1,14.05,45.5,45.3,45.6,46.0,45.3,27,29,25,0.293,13.5,15.1,11.8,11.66,12.4,45,9.0,15.4,0.00195,0.00306,36.8,34.8,22,261,0,46.1,12.51,0.00,0.00
15min,AgWx,beryljct,423,06MAR2018:17:30:00,50.2,14.05,45.1,44.8,45.1,45.4,44.7,29,32,27,0.290,15.1,16.9,13.2,10.63,11.6,50,10,15.9,0.00165,0.00265,36.9,34.8,22,211,0,45.1,12.51,0.00,0.00
15min,AgWx,beryljct,423,06MAR2018:17:45:00,49.1,14.09,43.8,43.7,44.3,44.9,43.5,31,34,28,0.313,15.3,17.2,13.4,9.78,11.0,55,10,13.8,0.00066,0.00078,36.8,34.8,22,163,0,43.8,12.50,0.00,0.00
15min,AgWx,beryljct,423,06MAR2018:18:00:00,47.7,13.56,42.1,42.1,42.9,43.8,42.1,34,36,32,0.330,16.3,17.3,15.1,9.97,10.8,55,10,14.2,0.00056,0.00066,36.8,34.9,22,118,0,42.4,12.51,0.00,0.00
15min,AgWx,beryljct,423,06MAR2018:18:15:00,46.0,13.33,40.4,40.3,41.3,42.2,40.3,37,40,35,0.333,17.2,18.1,15.5,7.848,8.7,60,11,12.5,0.00041,0.00050,36.8,35.0,22,58,0,40.6,12.50,0.00,0.00
15min,AgWx,beryljct,423,06MAR2018:18:30:00,44.1,13.15,38.2,38.4,39.3,40.4,38.3,40,41,38,0.325,17.1,17.6,16.6,6.555,7.7,59,11,11.8,0.00029,0.00037,36.7,35.0,22,12,0,37.8,12.50,0.00,0.00
15min,AgWx,beryljct,423,06MAR2018:18:45:00,42.0,13.07,36.7,36.9,37.6,38.4,36.8,43,44,41,0.323,17.1,17.5,16.5,7.826,6.9,60,11,9.1,0.00022,0.00029,36.5,35.1,22,3,0,35.6,12.50,0.00,0.00
15min,AgWx,beryljct,423,06MAR2018:19:00:00,40.2,13.04,36.1,36.3,36.4,37.1,36.0,46,47,43,0.331,17.4,17.9,16.6,8.92,8.3,60,16,11.8,0.00023,0.00029,36.3,35.2,22,0,0,35.5,12.51,0.00,0.00
15min,AgWx,beryljct,423,06MAR2018:19:15:00,38.8,13.02,35.8,35.9,36.4,36.7,35.9,44,46,42,0.310,16.4,17.4,15.4,9.62,11.1,51,15,13.4,0.00030,0.00036,36.1,35.2,22,0,0,35.6,12.51,0.00,0.00
15min,AgWx,beryljct,423,06MAR2018:19:30:00,37.5,13,34.5,34.8,35.4,36.1,34.8,45,46,43,0.302,16.0,16.5,15.2,6.182,7.9,40,12,10.8,0.00022,0.00028,35.7,35.3,22,0,0,35.1,12.51,0.00,0.00
15min,AgWx,beryljct,423,06MAR2018:19:45:00,36.2,12.98,33.8,34.0,34.4,34.9,34.0,47,48,44,0.316,16.1,16.9,14.8,3.091,4.1,35,12,6.6,0.00008,0.00013,35.7,35.4,22,0,0,35.6,12.51,0.00,0.00
15min,AgWx,beryljct,423,06MAR2018:20:00:00,35.0,12.97,33.8,34.0,33.8,34.1,33.5,46,48,44,0.291,15.2,16.4,14.2,2.916,3.9,30,15,6.9,0.00007,0.00011,35.5,35.5,22,0,0,35.6,12.51,0.00,0.00
15min,AgWx,beryljct,423,06MAR2018:20:15:00,34.3,12.97,33.4,33.7,33.9,34.1,33.5,45,46,44,0.298,14.6,15.4,14.2,2.916,3.2,16,21,5.3,0.00004,0.00007,35.3,35.6,22,0,0,35.8,12.51,0.00,0.00
15min,AgWx,beryljct,423,06MAR2018:20:30:00,33.8,12.96,32.7,33.1,33.4,33.7,32.8,47,49,45,0.310,15.1,15.8,14.3,4.779,4.6,49,14,7.5,0.00010,0.00014,35.1,35.6,22,0,0,35.4,12.51,0.00,0.00
15min,AgWx,beryljct,423,06MAR2018:20:45:00,33.2,12.83,32.1,32.6,32.7,33.2,32.1,48,50,46,0.303,15.3,16.0,14.6,7.059,5.2,44,14,7.9,0.00011,0.00016,34.9,35.6,22,0,0,35.4,12.51,0.00,0.00
15min,AgWx,beryljct,423,06MAR2018:21:00:00,32.6,12.92,31.3,31.8,32.2,32.6,31.7,50,51,49,0.309,15.5,15.9,14.9,2.894,5.0,44,16,8.2,0.00010,0.00014,34.8,35.7,22,0,0,35.4,12.51,0.00,0.00
15min,AgWx,beryljct,423,06MAR2018:21:15:00,31.6,12.91,30.6,31.0,31.5,31.8,30.9,51,52,49,0.302,15.2,15.9,14.6,2.346,1.9,29,63,5.2,-0.00006,-0.00006,34.7,35.7,22,0,0,35.7,12.51,0.00,0.00
15min,AgWx,beryljct,423,06MAR2018:21:30:00,30.8,12.92,31.3,31.8,31.2,31.8,30.4,51,55,48,0.291,15.2,16.3,14.3,0.592,2.5,230,16,3.8,-0.00002,-0.00001,34.5,35.7,22,0,0,35.7,12.51,0.00,0.00
15min,AgWx,beryljct,423,06MAR2018:21:45:00,30.2,12.78,31.5,32.0,32.2,32.7,31.5,47,49,45,0.292,14.0,14.8,13.5,3.99,3.1,63,58,7.9,0.00002,0.00005,34.4,35.8,22,0,0,35.6,12.51,0.00,0.00
15min,AgWx,beryljct,423,06MAR2018:22:00:00,29.8,12.89,29.8,30.3,31.0,32.0,30.1,50,51,47,0.290,14.5,15.2,13.6,1.951,3.2,63,13,5.6,0.00002,0.00004,34.3,35.8,22,0,0,35.3,12.51,0.00,0.00
15min,AgWx,beryljct,423,06MAR2018:22:15:00,29.3,12.87,29.1,29.5,29.9,30.9,28.4,52,59,47,0.302,14.4,16.2,13.2,3.486,4.5,348,42,7.4,0.00006,0.00010,34.2,35.8,22,0,0,35.7,12.51,0.00,0.00
15min,AgWx,beryljct,423,06MAR2018:22:30:00,28.8,12.88,30.3,30.6,29.9,30.9,28.9,50,55,45,0.264,13.5,15.2,12.0,4.428,3.3,1.5,25,5.0,0.00002,0.00005,34.1,35.8,22,0,0,35.9,12.51,0.00,0.00
15min,AgWx,beryljct,423,06MAR2018:22:45:00,28.2,12.75,28.3,28.9,29.3,30.8,28.9,51,53,46,0.288,13.2,14.1,12.0,1.71,2.3,326,22,4.3,-0.00003,-0.00002,33.9,35.8,22,0,0,35.6,12.51,0.00,0.00
15min,AgWx,beryljct,423,06MAR2018:23:00:00,27.5,12.85,28.5,29.1,28.7,29.1,28.3,52,56,49,0.270,13.5,14.9,12.4,0.395,1.7,336,22,2.8,-0.00007,-0.00008,33.8,35.8,22,0,0,35.4,12.51,0.00,0.00
15min,AgWx,beryljct,423,06MAR2018:23:15:00,26.9,12.85,28.3,28.9,29.1,29.4,28.8,50,51,49,0.274,12.8,13.3,12.5,1.732,1.4,32,14,3.0,-0.00010,-0.00012,33.7,35.8,22,0,0,35.6,12.51,0.00,0.00
15min,AgWx,beryljct,423,06MAR2018:23:30:00,26.3,12.84,27.7,27.8,28.3,29.1,27.6,52,55,50,0.271,12.9,13.6,12.3,1.074,1.1,303,42,2.4,-0.00012,-0.00016,33.7,32.0,0,0,0,35.5,12.51,0.00,0.00
15min,AgWx,beryljct,423,06MAR2018:23:45:00,25.8,12.85,27.9,28.5,28.3,28.6,27.9,52,53,50,0.268,12.8,13.3,12.3,2.696,0.9,341,37,2.7,-0.00014,-0.00018,33.5,35.8,22,0,0,35.6,12.51,0.00,0.00
15min,AgWx,bigpiney,439,06MAR2018:00:00:00,6.9,12.78,9.1,7.5,5.9,7.5,4.1,82,86,79,0.179,1.6,3.7,-0.9,3.376,2.9,245,28,5.3,-0.00002,-0.00002,29.4,30.9,11,0,0,0.0,.,0.00,0.00
15min,AgWx,bigpiney,439,06MAR2018:00:15:00,7.0,12.79,6.6,5.6,6.9,8.8,4.3,80,84,77,0.162,2.1,4.4,-0.8,4.932,4.7,239,9.2,6.7,0.00000,0.00000,29.3,30.8,11,0,0,0.0,.,0.00,0.00
15min,AgWx,bigpiney,439,06MAR2018:00:30:00,7.1,12.79,4.3,3.9,4.6,5.9,3.1,82,83,80,0.151,0.2,1.9,-1.6,1.315,4.1,244,46,6.4,-0.00001,-0.00000,29.2,30.9,11,0,0,0.0,.,0.00,0.00
15min,AgWx,bigpiney,439,06MAR2018:00:45:00,6.9,12.77,4.9,4.6,4.2,4.7,2.9,83,85,81,0.158,0.2,1.1,-1.8,0,1.2,182,48,2.6,-0.00004,-0.00005,29.2,30.9,11,0,0,0.0,.,0.00,0.00
15min,AgWx,bigpiney,439,06MAR2018:01:00:00,6.6,12.76,5.4,3.1,3.2,4.6,1.9,83,85,81,0.146,-0.9,0.8,-2.4,2.916,2.0,211,12,4.4,-0.00003,-0.00003,29.2,30.8,11,0,0,0.0,.,0.00,0.00
15min,AgWx,bigpiney,439,06MAR2018:01:15:00,6.2,12.76,5.7,4.5,4.6,6.2,2.6,83,87,80,0.155,0.6,3.2,-2.3,0,2.0,230,16,6.0,-0.00003,-0.00003,29.1,30.8,11,0,0,0.0,.,0.00,0.00
15min,AgWx,bigpiney,439,06MAR2018:01:30:00,5.9,12.74,4.6,4.7,5.3,6.7,3.7,83,86,79,0.157,1.3,3.3,-1.0,1.359,1.4,334,30,2.7,-0.00004,-0.00005,29.0,30.8,11,0,0,0.0,.,0.00,0.00
15min,AgWx,bigpiney,439,06MAR2018:01:45:00,5.6,12.73,3.4,2.3,4.2,6.0,0.9,84,86,79,0.142,0.3,2.6,-4.0,1.447,1.3,259,40,2.2,-0.00004,-0.00005,29.0,30.8,11,0,0,0.0,.,0.00,0.00
15min,AgWx,bigpiney,439,06MAR2018:02:00:00,5.1,12.72,5.8,4.8,4.1,5.0,2.3,86,87,81,0.164,0.7,1.7,-1.9,1.381,1.6,259,37,3.0,-0.00004,-0.00005,28.9,30.7,11,0,0,0.0,.,0.00,0.00
15min,AgWx,bigpiney,439,06MAR2018:02:15:00,5.0,12.7,6.7,5.5,5.1,5.8,4.3,84,86,81,0.167,1.4,2.1,-0.2,0,1.3,191,13,2.1,-0.00004,-0.00005,28.9,30.7,11,0,0,0.0,.,0.00,0.00
15min,AgWx,bigpiney,439,06MAR2018:02:30:00,4.9,12.69,6.7,6.0,5.2,6.0,3.5,84,86,81,0.171,1.5,2.6,-1.1,1.841,1.3,217,19,3.3,-0.00004,-0.00006,28.8,30.6,11,0,0,0.0,.,0.00,0.00
15min,AgWx,bigpiney,439,06MAR2018:02:45:00,5.0,12.69,7.1,6.6,6.6,6.8,6.0,84,85,84,0.172,2.8,3.0,2.6,0,1.0,223,4.9,1.8,-0.00005,-0.00007,28.7,30.6,11,0,0,0.0,.,0.00,0.00
15min,AgWx,bigpiney,439,06MAR2018:03:00:00,5.3,12.66,7.3,6.8,6.6,6.9,6.2,84,85,83,0.172,2.8,3.1,2.4,2.674,1.8,280,6.4,2.7,-0.00004,-0.00005,28.7,30.7,11,0,0,0.0,.,0.00,0.00
15min,AgWx,bigpiney,439,06MAR2018:03:15:00,5.4,12.67,5.6,3.6,5.9,6.9,3.2,83,85,80,0.147,1.9,2.9,-1.5,3.727,3.7,253,7.2,4.6,-0.00001,-0.00001,28.6,30.7,11,0,0,0.0,.,0.00,0.00
15min,AgWx,bigpiney,439,06MAR2018:03:30:00,4.8,12.64,1.8,2.6,5.3,6.6,2.6,84,87,80,0.137,1.5,3.0,-2.2,4.998,3.3,248,17,5.8,-0.00002,-0.00002,28.6,30.6,11,0,0,0.0,.,0.00,0.00
15min,AgWx,bigpiney,439,06MAR2018:03:45:00,4.2,12.65,2.8,1.8,2.1,3.6,0.7,83,86,80,0.138,-1.8,0.3,-4.1,3.836,4.2,235,4.1,5.8,-0.00001,-0.00000,28.5,30.5,11,0,0,0.0,.,0.00,0.00
15min,AgWx,bigpiney,439,06MAR2018:04:00:00,3.7,12.64,6.0,4.4,3.6,5.5,1.9,85,87,82,0.159,0.1,2.4,-1.9,2.083,1.7,262,10,3.9,-0.00003,-0.00004,28.5,30.6,11,0,0,0.0,.,0.00,0.00
15min,AgWx,bigpiney,439,06MAR2018:04:15:00,3.4,12.62,4.4,4.1,5.5,6.6,3.2,84,87,79,0.154,1.6,3.1,-1.7,1.666,1.6,239,22,4.8,-0.00004,-0.00005,28.4,30.6,11,0,0,0.0,.,0.00,0.00
15min,AgWx,bigpiney,439,06MAR2018:04:30:00,3.1,12.61,2.6,2.3,2.9,4.2,2.0,84,86,80,0.143,-1.0,0.7,-2.6,0,0.8,227,55,3.6,-0.00005,-0.00007,28.4,30.5,11,0,0,0.0,.,0.00,0.00
15min,AgWx,bigpiney,439,06MAR2018:04:45:00,2.7,12.6,3.7,3.1,2.6,3.1,1.9,86,86,84,0.151,-0.7,-0.1,-1.7,0,0.3,70,0.1,1.4,-0.00006,-0.00009,28.3,30.5,11,0,0,0.0,.,0.00,0.00
15min,AgWx,bigpiney,439,06MAR2018:05:00:00,2.3,12.58,3.0,2.6,2.5,3.6,1.7,85,87,83,0.148,-0.9,0.4,-1.8,0,0.5,209,4.0,2.2,-0.00006,-0.00008,28.2,30.6,11,0,0,0.0,.,0.00,0.00
15min,AgWx,bigpiney,439,06MAR2018:05:15:00,2.0,12.58,4.2,3.6,2.3,3.6,1.2,86,87,85,0.154,-0.9,0.5,-2.3,2.148,1.8,268,13,3.3,-0.00003,-0.00004,28.2,30.4,11,0,0,0.0,.,0.00,0.00
15min,AgWx,bigpiney,439,06MAR2018:05:30:00,2.1,12.58,5.0,4.3,3.9,4.6,3.4,85,86,84,0.156,0.4,1.2,-0.2,1.096,1.5,265,19,2.1,-0.00004,-0.00005,28.1,30.4,11,0,0,0.0,.,0.00,0.00
15min,AgWx,bigpiney,439,06MAR2018:05:45:00,2.2,12.58,0.0,0.2,2.8,4.3,-0.2,84,87,79,0.127,-1.0,0.8,-4.9,3.595,2.2,250,19,3.8,-0.00003,-0.00003,28.1,30.5,11,0,0,0.0,.,0.00,0.00
15min,AgWx,bigpiney,439,06MAR2018:06:00:00,1.7,12.57,3.4,2.3,1.2,4.1,-1.2,84,88,77,0.146,-2.5,1.1,-6.6,2.433,3.1,241,9.9,4.9,-0.00002,-0.00002,28.0,30.4,11,0,0,0.0,.,0.00,0.00
15min,AgWx,bigpiney,439,06MAR2018:06:15:00,1.0,12.57,-1.4,-2.1,0.9,4.6,-2.6,83,88,79,0.111,-3.2,1.6,-7.6,3.902,3.2,242,14,4.8,-0.00001,-0.00001,28.0,30.4,11,0,0,0.0,.,0.00,0.00
15min,AgWx,bigpiney,439,06MAR2018:06:30:00,0.3,12.56,0.7,-1.1,-0.7,1.7,-2.5,83,87,79,0.119,-4.7,-1.2,-7.4,2.872,3.0,236,12,4.2,-0.00001,-0.00001,27.9,30.3,11,0,0,0.0,.,0.00,0.00
15min,AgWx,bigpiney,439,06MAR2018:06:45:00,-0.1,12.57,3.4,3.9,1.0,3.9,-1.7,85,88,82,0.157,-2.5,0.8,-5.8,1.535,2.5,243,8.6,4.7,-0.00002,-0.00002,27.9,30.3,11,2,0,0.0,.,0.00,0.00
15min,AgWx,bigpiney,439,06MAR2018:07:00:00,-0.2,12.69,-0.9,-1.5,-1.7,3.6,-2.9,81,87,78,0.116,-6.2,0.5,-7.5,3.617,3.6,228,6.6,4.6,0.00000,0.00000,27.8,30.3,11,15,0,0.0,.,0.00,0.00
15min,AgWx,bigpiney,439,06MAR2018:07:15:00,-0.1,13.23,0.8,0.2,-0.6,0.2,-1.5,83,83,82,0.127,-4.7,-3.8,-5.6,1.863,3.4,238,7.9,5.3,-0.00003,-0.00000,27.7,30.3,11,53,0,0.0,.,0.00,0.00
15min,AgWx,bigpiney,439,06MAR2018:07:30:00,0.7,15.03,4.4,3.8,2.3,3.8,0.2,84,85,83,0.150,-1.6,-0.2,-3.8,0.548,1.6,240,16,3.1,0.00002,0.00003,27.7,30.3,11,92,0,0.0,.,0.00,0.00
15min,AgWx,bigpiney,439,06MAR2018:07:45:00,2.3,15.05,8.4,7.8,5.7,7.8,3.9,83,84,83,0.180,1.7,3.7,-0.2,0.921,1.7,230,11,4.8,0.00011,0.00013,27.6,30.3,11,134,0,0.0,.,0.00,0.00
15min,AgWx,bigpiney,439,06MAR2018:08:00:00,4.2,14.99,8.8,8.0,8.3,9.2,7.7,82,83,81,0.182,4.0,5.1,3.2,2.959,1.9,331,91,4.5,0.00022,0.00025,27.6,30.2,11,180,0,0.0,.,0.00,0.00